{"data":{"norad_id":66123,"epoch":"2026-05-24T23:31:47.225280Z","epoch_age_seconds":77522,"freshness":"FRESH","line1":"1 66123U 25237K   26144.98040770  .00017672  00000+0  60729-3 0  9998","line2":"2 66123  53.1619  45.0692 0001316  94.0611 266.0541 15.30204479 34290","mean_motion":15.30204479,"eccentricity":0.0001316,"inclination_deg":53.1619,"raan_deg":45.0692,"arg_perigee_deg":94.0611,"mean_anomaly_deg":266.0541,"bstar":0.00060729,"rev_number":3429,"period_min":94.10507025447,"perigee_km":474.2997965929,"apogee_km":476.10359533768,"semimajor_km":6853.3386959653,"source":"CELESTRAK","updated_at":"2026-05-25T13:38:21.063395Z"}}